sat.trackr.live / text

‹ back to catalog

STARLINK-35100

NORAD 65542 · 2025-200Y

PAYLOAD ACTIVE UNKNOWN

§ Identity

Operator
Country
US
Launch date
2025-09-06
Launch site
AFWTR
Launch vehicle
Mass (kg)
RCS (m²)

Purposes: comms

External: N2YO · Heavens-Above · Gunter

§ Orbital elements

Epoch: 2026-05-25T03:53:36.275424Z

Period
95.64 min
Inclination
97.4503°
Eccentricity
0.0000419
Mean motion
15.05630166 rev/d
Perigee alt
549.3 km
Apogee alt
549.9 km
Semi-major
6,927.7 km
B*
-3.4388e-4
RAAN
214.7469°
Arg perigee
5.7207°
Mean anomaly
354.4025°
Rev number
4,063

§ Raw data

STARLINK-351001 65542U 25200Y   26145.16222541 -.00005014  00000+0 -34388-3 0  99922 65542  97.4503 214.7469 0000419   5.7207 354.4025 15.05630166 40639

JSON: /api/v1/satellites/65542 · /tle

For live sub-satellite position, see the globe view (requires WebGL).

§ Visibility from observer

Set your observer location to see the next 7 days of passes ≥ 10°. The values pass through the URL so the page stays shareable.

No JS? Fill the form by hand. The geolocation button needs JavaScript.